Regional Weather Roundup
Issued by NWS

Home | Current Version | Previous Version | Graphics & Text | Print | Product List | Glossary On
Versions: 1 2 3 4 5 6 7 8 9 10 11 12 13 14 15 16 17 18 19 20 21 22 23 24 25 26 27 28 29 30 31 32 33 34 35 36 37 38 39 40 41 42 43 44 45 46 47 48 49 50
000
ASUS45 KCYS 241710
RWRWY

WYOMING REGIONAL WEATHER ROUNDUP
NATIONAL WEATHER SERVICE CHEYENNE WY
1000 AM MST FRI NOV 24 2017

NOTE:  "FAIR" INDICATES FEW OR NO CLOUDS BELOW 12,000 FEET
WITH NO SIGNIFICANT WEATHER AND/OR OBSTRUCTIONS TO VISIBILITY.

WYZ001-241800-
YELLOWSTONE NATIONAL PARK

CITY           SKY/WX    TMP DP  RH WIND       PRES   REMARKS
LK YELLOWSTONE   N/A     35  26  69 CALM      30.02R
W YELLOWSTONE  NOT AVBL

$$
WYZ002>013-054>058-071-098>099-241800-
NORTHERN WYOMING

CITY           SKY/WX    TMP DP  RH WIND       PRES   REMARKS
JACKSON        CLOUDY    39  36  89 S9        29.97R WCI  33
CODY           FAIR      45  33  63 W5        29.91R
GREYBULL       FAIR      50  17  27 NW14G24   29.87R
WORLAND        FAIR      48  33  56 NW7       29.89R
SHERIDAN       FAIR      49  30  48 N16       29.92R
BUFFALO        FAIR      46  28  49 N29G36    29.88R
GILLETTE       FAIR      47  29  49 NW21G28   29.87R
HULETT         FAIR      45  32  61 NW14G26   29.87R
NEWCASTLE      FAIR      45  36  70 NW16G25   29.84R

$$
WYZ014>020-022>026-101>103-241800-
CENTRAL WYOMING

CITY           SKY/WX    TMP DP  RH WIND       PRES   REMARKS
BIG PINEY      PTSUNNY   46  32  58 N15       29.99R
PINEDALE       LGT RAIN  36  34  93 CALM      30.01R
DUBOIS         CLOUDY    34  32  93 W5        29.94R WCI  30
LANDER         PTSUNNY   50  33  52 NE9       29.90R
RIVERTON       LGT RAIN  48  37  65 N16       29.92R
CASPER         CLOUDY    45  36  70 E6        29.91R
DOUGLAS        LGT RAIN  45  38  76 N8G21     29.92R

$$
WYZ021-027>030-104>119-241800-
SOUTHERN WYOMING

CITY           SKY/WX    TMP DP  RH WIND       PRES   REMARKS
EVANSTON       FAIR      49  32  52 W25       30.05S
KEMMERER       FAIR      43  32  65 W6        30.04R
FORT BRIDGER   PTSUNNY   50  33  51 W15G23    30.08S
ROCK SPRINGS   FAIR      46  32  58 S8        30.02S
DIXON          CLOUDY    45  31  58 SW5       30.07R
RAWLINS        LGT RAIN  51  32  48 W21G36    29.96F
SARATOGA       FAIR      50  32  50 W15G29    30.01R
LARAMIE        FAIR      55  29  36 W35G44    29.93F
CHEYENNE       FAIR      56  28  34 W20G31    29.89R
TORRINGTON     FAIR      54  37  52 N32G40    29.83R
PINE BLUFFS    FAIR      59  28  31 W17G23    29.86S

$$



USA.gov is the U.S. government's official web portal to all federal, state and local government web resources and services.